MST,Max TemperatureF,Mean TemperatureF,Min TemperatureF,Max Dew PointF,MeanDew PointF,Min DewpointF,Max Humidity, Mean Humidity, Min Humidity, Max Sea Level PressureIn, Mean Sea Level PressureIn, Min Sea Level PressureIn, Max VisibilityMiles, Mean VisibilityMiles, Min VisibilityMiles, Max Wind SpeedMPH, Mean Wind SpeedMPH, Max Gust SpeedMPH,PrecipitationIn, CloudCover, Events, WindDirDegrees
2013-4-1,84,69,53,34,27,20,35,24,13,29.96,29.89,29.82,10,10,10,16,5,29,0.00,0,,303
2013-4-2,79,69,59,23,19,13,30,19,8,30.02,29.92,29.85,10,10,10,17,6,24,0.00,0,,241
2013-4-3,83,67,51,25,21,14,30,19,7,29.99,29.94,29.90,10,10,10,14,6,17,0.00,0,,211
2013-4-4,90,73,55,24,18,3,27,16,4,30.09,29.95,29.85,10,10,10,15,8,19,0.00,0,,173
2013-4-5,89,74,58,29,24,16,23,16,9,29.93,29.86,29.78,10,10,10,21,7,31,0.00,0,,230
2013-4-6,87,73,58,35,30,23,35,23,10,29.93,29.84,29.76,10,10,10,18,6,27,0.00,0,,208
2013-4-7,87,71,55,36,29,17,43,26,8,29.84,29.76,29.68,10,10,10,17,6,25,0.00,0,,233
2013-4-8,84,67,49,46,33,23,59,35,11,29.73,29.53,29.34,10,9,2,37,19,49,0.07,3,Rain,211
2013-4-9,67,58,48,45,33,19,86,52,18,29.86,29.73,29.59,10,8,2,24,10,30,0.05,6,Rain,246
2013-4-10,69,58,46,31,26,20,46,31,16,30.02,29.92,29.86,10,10,10,21,7,25,0.00,0,,284
2013-4-11,80,64,48,28,24,19,42,27,11,30.00,29.84,29.73,10,10,10,15,7,20,0.00,0,,130
2013-4-12,82,69,55,28,21,16,26,18,9,29.77,29.73,29.70,10,10,10,17,7,23,0.00,0,,178
2013-4-13,86,70,53,28,22,16,30,19,8,29.88,29.75,29.67,10,10,10,17,7,29,0.00,0,,210
2013-4-14,86,73,60,35,28,20,31,20,9,29.83,29.70,29.61,10,10,10,24,10,35,0.00,0,,211
2013-4-15,88,76,63,38,30,20,37,23,8,29.74,29.68,29.62,10,10,10,26,13,34,0.00,0,,207
2013-4-16,86,75,63,38,30,21,34,22,10,29.83,29.71,29.64,10,10,10,26,13,35,0.00,0,,218
2013-4-17,69,62,54,41,23,7,55,33,10,29.98,29.86,29.72,10,10,10,23,12,31,0.00,2,,281
2013-4-18,72,59,45,14,8,2,22,14,6,30.10,30.03,29.97,10,10,10,16,7,25,0.00,0,,306
2013-4-19,81,62,42,9,-2,-16,22,12,2,30.11,30.01,29.89,10,10,10,24,7,30,0.00,0,,129
2013-4-20,85,66,47,16,6,0,14,10,5,29.94,29.90,29.84,10,10,10,20,7,25,0.00,0,,204
2013-4-21,90,73,55,15,11,4,18,11,4,29.99,29.92,29.85,10,10,10,14,6,22,0.00,0,,186
2013-4-22,93,74,54,18,12,1,22,13,3,29.91,29.82,29.72,10,10,10,17,7,23,0.00,0,,209
2013-4-23,90,76,61,27,15,8,20,13,5,29.83,29.77,29.73,10,10,10,21,8,32,0.00,0,,231
2013-4-24,91,76,60,27,18,9,22,14,5,29.94,29.82,29.75,10,10,10,23,8,28,0.00,0,,188
2013-4-25,85,74,63,28,23,11,22,14,6,29.98,29.85,29.80,10,10,10,30,12,40,0.00,0,,236
2013-4-26,88,71,53,25,21,1,29,17,4,30.06,30.00,29.95,10,10,10,14,7,18,0.00,0,,283
2013-4-27,91,74,56,22,18,7,24,14,4,30.02,29.93,29.84,10,10,10,15,6,20,0.00,0,,214
2013-4-28,95,77,59,19,12,3,19,11,3,29.96,29.78,29.69,10,10,10,14,6,19,0.00,0,,167
2013-4-29,97,79,60,19,10,0,15,9,3,29.78,29.70,29.61,10,10,10,16,6,21,0.00,0,,220
2013-4-30,96,80,64,20,14,8,16,10,4,29.86,29.70,29.63,10,10,10,22,8,25,0.00,0,,195